GFSGBSN_925_spd_057.txt.gz
Wind_Speed
10 10 11 11 12 13 13 14 14 16 16 17 17 18 19 21 21 22 24 26 27 28 29 26 19 19 12 4 10 14 12 6 9 14 6 5 7 5 6 7 8 6 6 6 10 7 6
11 11 11 12 13 14 13 14 16 16 17 18 18 19 19 20 23 24 25 28 31 31 31 29 17 11 4 7 8 10 7 6 8 11 5 6 6 6 4 5 8 7 8 7 6 8 3
12 13 12 13 14 15 17 16 17 17 17 19 19 20 20 22 25 26 27 28 31 32 32 28 14 4 3 17 12 11 8 7 7 10 4 9 4 3 5 3 4 3 4 5 6 3 5
14 14 14 14 15 15 16 17 18 18 17 18 20 20 22 24 25 27 29 31 34 35 25 18 10 5 7 21 20 25 18 19 18 11 5 4 6 3 3 1 3 4 1 5 1 4 1
13 15 15 15 15 17 17 16 17 17 18 19 19 20 23 24 25 27 29 33 35 15 11 7 10 6 9 9 9 14 15 10 15 14 8 3 3 4 2 4 2 1 6 6 4 4 3
15 15 15 15 17 18 17 20 19 18 20 20 18 21 23 24 24 26 30 34 11 4 6 7 7 1 6 3 11 6 3 8 3 9 3 5 2 4 3 9 11 8 5 5 7 4 2
16 16 16 15 17 18 18 17 17 17 19 19 19 21 22 22 21 24 29 12 5 2 5 6 5 6 3 7 15 4 4 7 2 4 10 5 7 14 16 15 5 7 4 4 3 4 3
19 19 17 17 16 17 17 17 17 18 18 18 19 19 21 20 20 22 12 4 6 7 12 16 21 17 29 7 6 9 9 6 5 9 9 4 15 13 8 8 10 6 5 7 9 6 7
18 19 18 17 16 16 17 16 16 17 18 17 18 18 19 19 18 7 9 1 14 16 6 10 7 8 10 20 18 20 6 3 6 8 15 16 4 15 14 8 11 13 11 7 9 6 3
19 18 19 19 17 19 17 18 19 17 18 16 17 18 17 18 6 10 5 5 18 10 5 6 4 6 8 10 8 22 18 9 6 14 9 12 8 11 11 16 13 14 10 7 5 3 5
21 19 21 20 20 18 19 20 17 19 17 16 17 16 15 12 9 5 8 18 20 3 6 1 2 3 7 7 6 3 22 13 11 7 7 8 7 11 12 10 14 10 8 10 7 6 4
21 20 21 20 20 19 21 18 18 18 17 16 16 15 14 10 5 9 10 18 3 2 7 6 2 2 5 9 5 4 5 3 5 5 1 8 2 11 13 5 16 7 3 3 3 2 6
23 22 21 22 20 18 20 18 19 18 17 16 16 14 13 10 2 4 13 7 1 4 5 7 7 7 9 5 4 4 5 13 7 10 12 5 8 3 4 8 6 5 6 3 5 4 7
22 23 23 22 20 18 20 18 18 19 18 17 15 15 14 14 9 7 3 1 8 2 6 5 8 12 2 2 4 5 5 9 9 1 7 10 6 12 5 6 6 13 12 5 7 6 5
24 24 24 22 21 22 19 18 16 17 18 16 16 15 10 13 8 8 2 4 3 6 3 8 13 5 5 7 5 2 6 2 6 8 6 8 9 4 6 5 7 6 8 6 2 2 1
26 25 24 23 24 23 19 18 17 15 17 15 9 7 10 14 10 12 5 8 5 3 4 4 2 5 6 8 9 8 1 6 6 8 3 5 2 4 3 4 4 8 10 5 1 6 8
27 26 25 25 24 22 18 20 15 15 16 14 6 3 7 13 20 3 7 6 4 12 6 2 2 4 4 5 6 8 8 2 11 9 4 3 2 2 4 5 11 6 8 1 3 3 4
28 27 26 26 25 23 23 20 17 16 16 12 4 3 7 24 5 2 3 5 7 4 2 3 2 5 4 5 5 5 6 5 11 11 3 2 2 3 5 1 3 2 5 9 4 4 1
28 27 27 27 26 26 25 20 18 17 15 6 3 3 9 14 6 8 3 4 8 6 3 1 2 0 2 2 3 2 5 5 10 9 4 4 1 3 2 2 4 2 2 3 2 3 7
31 30 30 29 28 28 26 22 19 19 19 15 3 3 6 6 7 12 9 6 7 5 7 1 3 3 1 1 0 4 6 4 9 9 8 2 2 2 2 3 2 1 6 3 3 3 5
33 33 32 30 30 28 27 25 23 23 22 14 5 4 4 3 9 16 10 8 12 8 6 7 5 10 6 2 3 4 3 5 6 10 5 4 3 1 2 2 3 2 5 4 4 6 5
32 31 31 31 32 34 33 32 29 28 26 20 3 4 4 4 6 15 11 13 18 14 11 7 8 4 11 11 11 5 0 2 4 6 8 8 3 2 2 2 2 4 8 3 4 2 6
34 36 38 39 39 37 36 38 36 33 31 13 14 6 2 8 9 6 14 16 18 14 9 13 12 10 11 12 10 12 9 9 8 6 4 4 1 3 4 1 4 3 6 4 2 2 2
41 40 39 38 38 36 36 37 41 41 40 28 10 6 5 7 9 14 13 15 15 20 13 7 10 13 2 6 10 4 5 9 10 9 9 5 4 0 1 1 5 1 3 6 3 4 8
43 40 38 37 36 37 37 36 37 44 45 34 26 8 5 7 11 12 17 15 13 11 15 14 11 8 4 7 3 4 2 1 6 10 10 12 3 2 2 3 5 8 3 5 5 5 6
37 36 36 37 37 37 36 36 36 40 54 42 33 28 6 5 13 15 9 13 9 6 4 8 7 8 3 1 3 3 2 3 2 2 1 8 6 2 2 2 4 3 1 2 3 3 3
35 36 36 36 37 37 36 34 33 33 48 42 24 34 14 4 5 12 12 9 8 9 3 4 5 5 9 4 4 4 2 2 2 4 4 5 3 8 4 4 5 8 7 2 3 1 4
36 36 36 36 35 35 35 33 31 34 40 40 30 37 27 3 4 9 14 11 6 10 6 6 4 2 4 6 3 3 3 3 3 3 5 7 7 4 5 3 7 3 2 2 6 6 6
29 28 30 28 27 29 32 32 32 33 38 40 13 33 37 5 2 17 13 25 29 20 9 10 5 5 5 3 4 3 3 1 5 3 1 4 5 4 7 5 1 4 5 7 8 11 11

GFSGBSN_925_spd_060.txt.gz
Wind_Speed
6 8 7 10 9 8 9 10 14 15 15 16 18 18 18 19 20 21 24 25 26 27 25 27 23 21 13 8 9 13 14 7 1 11 15 15 17 18 17 14 12 19 16 11 13 11 11
7 8 10 9 12 11 10 13 14 13 15 16 18 18 19 20 21 23 25 27 28 29 28 27 22 13 9 14 10 7 11 10 4 12 12 13 10 16 10 12 17 7 19 15 13 13 11
10 9 9 11 11 10 12 12 12 15 14 14 16 18 20 21 23 25 26 29 31 31 34 28 18 9 10 19 13 14 16 15 12 12 13 14 13 10 7 10 14 11 12 14 15 14 15
11 10 12 10 13 13 11 13 13 13 13 15 17 18 20 23 24 24 26 30 31 33 26 16 9 9 9 18 14 18 17 14 17 14 13 13 13 13 10 4 5 14 14 16 15 12 8
11 12 12 13 12 14 15 14 17 17 16 17 18 18 20 23 24 25 27 32 32 14 11 2 6 9 9 3 8 7 6 10 9 16 14 9 8 14 12 13 12 12 15 18 12 11 6
15 14 13 13 13 14 14 16 16 14 15 15 16 17 19 21 22 24 29 28 8 2 4 1 1 6 11 5 4 1 3 7 6 10 10 12 9 12 15 15 17 15 16 14 14 9 12
14 14 16 13 14 14 13 14 15 16 15 16 17 17 19 20 21 23 22 11 4 4 5 8 13 14 15 10 9 6 7 7 7 15 17 18 14 20 23 22 19 13 12 14 10 6 6
15 16 16 14 15 15 13 13 14 15 16 17 16 17 18 19 19 17 11 6 5 6 13 18 23 24 29 19 7 7 5 6 9 15 20 11 20 18 16 19 20 18 15 14 9 6 8
17 17 17 18 17 15 14 15 13 16 16 17 16 16 18 18 17 5 7 4 8 12 7 11 9 9 9 18 9 7 9 10 12 17 18 21 5 15 15 16 19 20 20 15 14 3 10
18 20 20 16 17 15 14 14 12 16 16 17 15 15 16 17 5 8 3 6 12 8 5 3 3 2 5 4 8 25 9 9 8 13 16 15 24 6 20 22 19 19 19 16 12 11 9
18 20 19 17 16 19 18 14 17 16 16 18 15 14 14 9 11 6 9 11 14 3 6 5 3 2 8 7 8 4 31 22 23 19 8 15 11 20 17 18 18 17 7 13 15 13 12
19 19 20 19 17 19 18 16 17 15 17 15 14 13 12 7 5 6 9 15 5 4 4 2 2 4 3 10 6 2 3 16 16 19 17 20 3 13 21 14 12 8 7 7 8 10 12
21 22 22 19 19 19 20 15 14 18 15 14 13 13 10 8 4 4 11 7 4 5 4 4 5 11 11 6 4 8 9 18 12 16 18 17 17 8 10 19 13 15 12 7 8 8 10
23 22 20 19 20 21 20 15 17 19 17 14 13 14 10 11 8 6 5 4 8 2 5 6 6 14 4 7 1 7 6 12 19 17 8 15 9 15 12 13 11 18 19 7 8 10 9
22 21 21 21 20 21 19 17 19 16 15 14 14 11 11 10 9 8 2 7 3 4 3 7 12 6 2 5 6 3 4 3 7 15 10 12 18 11 12 11 15 13 19 16 9 1 5
25 24 22 21 21 22 24 21 17 14 15 12 9 9 16 11 11 10 4 7 6 5 2 3 4 4 5 8 7 5 5 7 5 8 12 5 6 10 17 16 16 10 10 8 10 13 12
23 21 21 21 22 22 21 20 17 16 14 10 6 4 4 11 14 4 7 8 11 12 5 3 3 5 5 6 8 7 7 5 12 11 13 7 5 6 11 15 18 14 12 9 7 13 11
25 24 23 24 23 21 22 21 17 15 12 9 5 4 5 16 6 3 6 8 7 10 14 10 5 7 9 9 7 5 2 5 14 16 7 10 3 8 10 4 8 17 16 19 10 10 7
26 26 27 26 23 23 24 23 22 19 14 6 4 5 5 14 6 10 6 15 11 11 12 9 10 4 3 4 5 5 3 4 10 12 11 2 8 6 11 11 3 9 6 8 13 12 13
28 27 25 25 25 24 25 23 21 21 18 14 2 4 5 6 7 7 17 14 14 14 16 12 7 7 8 11 11 8 7 3 11 8 13 6 3 9 8 3 3 7 8 4 9 8 10
29 28 27 28 28 26 25 25 23 22 20 15 5 4 6 5 10 16 12 5 19 15 15 12 9 15 13 10 10 11 13 13 5 7 6 2 2 1 2 2 1 3 5 4 8 8 7
28 27 26 26 25 25 27 24 23 21 22 19 3 4 4 8 8 15 15 16 17 17 12 12 15 10 13 17 17 12 8 6 5 4 6 7 2 4 2 3 3 5 6 8 7 9 9
29 29 29 27 27 26 25 26 27 28 28 14 15 11 2 11 16 11 14 17 19 20 13 17 13 11 13 13 12 12 12 12 12 8 4 4 3 4 8 2 3 7 12 10 7 7 7
35 33 32 31 30 30 31 33 34 35 36 28 17 12 7 9 11 15 17 16 19 17 19 13 12 9 4 3 8 12 13 13 14 14 10 4 2 3 4 2 7 1 4 2 5 5 5
41 39 37 37 37 37 37 37 37 39 41 37 27 15 6 10 15 20 18 13 16 19 18 13 12 10 3 5 3 7 7 9 12 17 15 13 4 3 5 10 8 6 6 5 7 4 4
43 40 38 38 39 39 38 38 38 38 39 40 33 32 8 5 17 22 18 19 13 13 12 15 6 3 8 4 4 4 5 4 6 7 14 13 11 6 5 7 6 3 7 2 2 5 6
28 31 33 33 34 35 35 35 36 37 38 36 24 36 22 8 9 10 14 16 7 7 4 5 6 6 6 4 4 5 3 1 5 9 8 10 10 13 10 7 4 8 2 4 7 3 12
30 30 31 32 33 33 34 34 35 36 38 37 24 45 29 7 12 14 18 17 12 8 6 8 5 5 4 7 5 4 4 4 3 6 8 11 11 8 11 8 8 3 2 3 5 7 11
34 31 29 32 34 35 36 37 38 38 37 36 11 38 36 10 3 18 21 20 24 20 11 10 6 6 7 7 5 3 4 1 7 4 7 7 6 5 8 6 6 7 9 7 6 5 8

GFSGBSN_925_spd_063.txt.gz
Wind_Speed
10 10 11 11 11 10 10 12 13 13 13 15 17 18 18 18 20 23 25 26 26 27 26 26 24 21 16 10 22 27 11 9 3 6 16 18 22 21 23 22 21 21 22 21 16 16 13
8 10 11 13 12 13 12 11 15 14 15 15 15 18 20 21 22 24 26 28 28 28 29 27 24 15 13 21 24 18 9 5 3 2 15 18 16 18 20 24 20 19 18 21 21 17 17
11 9 10 12 13 15 14 13 16 14 14 14 16 19 20 21 24 24 27 28 29 31 30 28 19 9 13 26 16 12 12 12 8 6 14 19 18 15 17 18 18 18 21 17 21 20 20
12 11 9 12 13 15 16 15 15 19 19 18 19 19 19 21 23 26 28 30 31 33 27 14 9 9 10 16 18 23 23 18 11 7 13 18 20 16 19 15 13 16 20 18 19 19 18
11 12 11 12 13 14 13 18 16 18 17 18 17 18 19 20 23 27 29 34 29 18 9 6 5 10 13 3 10 15 19 21 10 8 15 19 16 17 16 16 15 18 16 22 20 17 14
13 14 14 14 13 14 14 17 18 17 17 17 18 17 20 21 22 26 32 26 19 10 5 6 9 6 10 10 7 4 4 11 7 4 15 16 11 16 15 14 16 17 18 19 18 14 15
15 14 12 14 15 14 16 16 16 16 15 17 19 20 20 21 22 24 25 26 1 7 8 14 13 15 20 7 13 11 6 7 9 15 17 16 15 21 22 20 21 24 19 16 12 12 11
16 14 14 16 14 14 15 15 15 15 17 17 19 18 19 21 20 18 17 7 7 6 13 16 19 21 27 23 12 13 6 12 8 15 17 17 22 20 21 19 21 26 24 16 15 5 5
17 17 17 16 16 15 16 15 16 16 17 17 17 18 17 20 18 9 9 7 9 11 8 10 7 7 5 8 16 13 12 14 7 12 18 19 16 22 18 18 22 24 23 19 18 9 8
19 17 16 18 17 15 16 16 17 14 18 16 17 18 16 17 11 11 5 8 10 9 5 6 3 3 4 3 5 22 13 10 10 12 17 17 27 8 17 21 20 22 18 19 17 15 13
19 17 17 16 17 15 18 19 17 14 17 16 18 15 15 10 13 8 9 10 10 2 5 5 6 3 3 6 7 2 26 10 14 12 4 14 12 18 20 18 20 24 16 15 16 18 17
17 18 16 16 20 18 17 18 19 15 15 18 15 14 13 12 10 11 10 13 9 5 5 5 2 3 7 8 6 4 7 19 6 10 20 21 24 16 16 19 19 15 15 16 11 14 15
19 18 17 20 20 20 18 18 19 15 15 15 15 13 13 12 11 7 11 11 6 7 6 4 1 5 11 9 5 9 8 17 12 8 17 21 22 24 13 15 22 19 12 9 11 12 15
21 21 20 20 18 16 19 20 18 15 14 16 14 15 14 15 12 9 9 6 10 3 3 2 4 12 10 7 2 8 8 10 19 20 8 16 14 23 15 15 16 19 18 10 12 10 13
21 21 20 19 18 18 19 17 17 17 16 14 14 16 18 15 13 13 6 10 5 7 4 4 10 11 6 2 5 3 10 3 9 18 16 10 20 12 20 14 15 17 20 21 18 10 7
21 22 22 22 21 18 17 20 18 17 14 12 14 13 18 13 14 13 7 14 11 5 4 5 7 2 5 3 7 6 9 7 4 5 15 16 17 14 17 14 20 21 10 17 13 11 11
22 21 20 18 18 18 19 17 18 16 15 10 11 4 4 14 16 6 9 15 11 7 5 6 8 7 10 8 6 7 3 4 9 9 11 15 9 6 11 17 19 17 17 12 15 14 9
22 22 21 21 21 21 20 19 17 15 13 11 12 4 7 17 9 7 11 13 7 11 11 13 8 11 11 11 11 8 4 6 8 13 11 16 6 12 15 19 22 22 20 18 9 5 13
22 22 23 23 22 23 23 21 19 16 15 14 4 7 6 15 8 11 13 19 20 13 14 10 13 13 14 11 7 10 7 3 5 12 10 11 10 10 14 10 8 13 19 19 17 14 13
23 23 23 24 22 21 19 20 20 19 21 20 4 5 8 7 10 12 16 15 17 13 18 15 12 12 14 14 14 10 11 2 5 5 11 6 11 13 13 13 10 13 11 10 11 9 14
25 25 24 25 25 23 22 23 23 22 21 17 7 6 6 7 13 17 15 7 20 17 14 16 14 18 14 15 15 16 18 14 14 3 8 3 5 12 9 3 9 7 15 14 13 15 11
26 26 25 24 23 23 23 23 22 22 22 19 5 5 7 11 12 18 19 17 18 15 17 17 16 17 18 19 16 15 12 12 10 4 6 5 3 6 9 4 4 5 8 10 11 13 13
28 28 27 25 24 24 24 24 24 25 22 8 16 12 5 7 15 11 13 19 18 18 14 17 14 16 13 12 9 9 13 13 11 13 8 9 8 4 3 7 2 5 13 11 11 13 13
31 30 31 30 28 27 26 27 29 28 31 18 11 12 6 10 12 14 18 17 18 16 18 18 15 16 6 6 7 11 14 15 17 18 14 12 9 8 3 5 3 1 2 12 14 9 6
38 38 37 36 36 34 31 30 30 30 30 28 25 14 10 11 14 17 17 14 15 15 17 15 15 4 6 4 6 9 9 11 18 19 18 15 12 5 5 7 7 3 5 6 6 4 2
38 38 36 38 39 39 37 36 35 34 33 31 31 28 10 10 15 21 18 17 12 11 12 15 10 5 5 2 4 7 7 12 10 8 20 16 13 9 5 7 5 6 7 2 4 7 7
36 32 29 24 32 37 38 39 39 38 37 36 24 37 18 9 15 13 13 12 14 14 6 7 6 3 3 3 5 7 10 5 6 11 20 14 12 14 11 8 6 4 5 2 11 4 8
36 33 30 27 25 30 32 34 37 39 39 38 31 29 30 4 17 16 19 13 10 8 9 2 4 4 3 4 5 7 5 4 4 8 17 14 11 9 13 12 14 5 4 8 7 9 8
36 33 32 29 27 26 31 32 35 36 36 36 19 28 35 8 8 24 29 24 17 13 4 4 5 4 8 6 6 2 4 1 10 4 11 9 12 7 10 10 6 8 11 8 7 8 9

GFSGBSN_925_spd_069.txt.gz
Wind_Speed
6 7 7 9 10 10 10 12 12 13 15 17 17 18 19 21 21 23 25 26 28 29 28 26 24 21 14 3 11 20 24 22 11 11 10 8 8 7 10 9 13 18 19 20 20 22 22
8 9 11 9 10 11 12 13 14 14 16 18 20 19 21 23 24 25 29 30 31 29 29 29 23 14 4 9 14 14 18 15 10 13 15 9 8 11 12 13 16 14 16 18 19 19 17
9 10 9 9 10 13 13 15 14 15 18 19 19 19 20 23 27 30 31 33 33 32 29 23 17 7 8 20 12 22 18 20 16 15 5 17 15 5 8 8 12 16 17 16 18 15 16
10 11 10 10 11 13 14 15 14 16 19 17 18 19 23 26 29 34 34 35 36 32 27 12 7 4 8 20 20 23 21 19 16 18 11 17 19 7 4 6 7 7 9 12 10 12 15
9 11 12 13 14 14 14 14 14 18 16 18 18 21 25 28 31 32 34 38 38 27 17 10 3 6 9 14 6 13 16 13 12 15 10 16 9 4 6 3 4 5 5 9 12 12 14
9 12 13 13 13 12 14 15 13 17 15 15 19 22 26 28 32 30 34 39 23 7 1 5 6 5 8 5 7 15 13 7 5 4 2 4 3 4 2 1 4 6 5 8 11 17 13
10 11 12 13 13 13 13 13 14 17 18 17 17 21 24 26 30 28 31 18 8 4 7 7 6 8 13 18 28 13 20 3 5 4 5 5 4 6 6 8 12 16 15 13 11 12 13
12 13 12 14 14 14 16 15 15 15 14 16 15 21 22 27 28 26 20 6 9 3 12 15 22 22 28 21 10 9 11 3 6 6 5 4 7 7 9 12 16 18 18 17 16 16 12
12 13 14 14 14 13 13 14 14 14 15 17 17 19 23 27 25 13 18 18 7 15 4 16 11 11 9 14 11 8 5 4 5 6 5 7 6 10 13 10 17 18 15 16 15 19 21
14 14 15 15 14 13 13 14 14 15 16 15 16 18 22 24 9 20 10 25 19 15 4 7 6 8 8 5 5 10 11 5 4 3 1 3 5 11 13 17 13 13 17 13 15 12 11
14 12 13 13 12 13 13 15 17 15 15 15 16 16 19 17 17 9 14 26 21 5 5 9 8 17 10 6 5 5 13 1 4 6 4 4 5 10 14 17 9 9 16 9 9 10 12
11 11 12 13 14 14 14 16 17 15 15 15 14 14 17 18 10 17 23 24 11 1 8 6 8 10 10 10 4 5 5 2 3 6 7 6 6 3 11 10 9 14 13 10 8 3 5
14 12 12 13 15 15 15 17 15 13 14 15 14 14 14 14 7 15 21 10 2 5 11 7 6 7 10 7 12 7 6 6 5 3 5 7 16 8 7 8 11 10 3 2 2 4 3
12 12 14 14 15 14 14 14 14 15 15 14 13 15 18 18 18 18 17 3 8 10 11 2 2 2 6 10 3 12 11 6 9 5 3 4 4 11 12 14 8 12 10 3 6 3 2
14 13 13 14 14 14 14 14 15 15 13 12 13 18 15 17 16 13 1 7 5 6 9 9 6 1 5 13 5 7 12 7 10 12 5 3 5 7 10 9 10 5 7 16 6 6 1
12 13 15 15 14 14 14 14 12 11 11 10 10 14 18 22 17 14 4 14 11 12 16 14 5 5 6 4 4 2 2 1 3 5 5 4 8 7 11 14 14 7 3 4 4 3 4
18 14 15 15 15 14 13 12 11 10 10 10 6 3 12 10 14 4 8 8 13 21 19 9 7 9 11 9 6 4 4 5 6 5 4 3 3 7 5 8 11 7 5 5 3 7 2
18 17 16 15 14 14 14 13 13 12 9 5 3 3 8 10 6 3 10 6 9 23 22 18 9 6 10 12 5 6 5 6 4 2 2 4 4 5 11 9 3 4 11 12 2 1 4
17 16 17 17 17 16 15 14 13 12 9 3 2 3 21 5 6 10 6 13 18 21 20 13 9 5 7 9 5 4 5 9 8 3 4 1 3 4 7 3 5 7 17 10 11 6 4
17 17 17 17 16 15 15 13 14 14 13 11 1 3 3 3 4 6 10 16 17 17 20 19 15 14 12 8 6 5 6 3 5 4 8 4 3 5 5 9 4 6 9 14 14 3 3
18 18 19 19 18 17 17 16 14 13 10 10 3 4 4 3 2 6 13 10 6 13 13 13 12 13 15 10 6 6 8 5 4 11 4 3 2 3 10 14 15 12 10 13 15 15 4
19 17 19 19 18 17 18 17 18 18 12 11 2 2 4 6 5 9 15 16 17 15 4 10 11 11 10 11 7 3 5 5 5 6 3 3 3 3 7 7 11 11 13 9 11 11 16
20 21 21 20 20 20 19 19 19 18 16 7 7 7 3 5 7 2 5 8 15 12 10 15 6 8 7 7 3 2 2 3 2 2 1 2 4 4 3 6 9 5 7 11 9 11 8
23 23 22 21 21 22 21 21 22 21 21 17 6 5 3 8 8 9 13 13 8 15 10 14 3 7 3 8 8 4 4 5 7 6 7 5 1 2 4 5 3 4 17 8 9 6 7
22 23 23 23 23 24 26 25 26 26 24 25 17 6 2 7 7 14 12 11 8 7 15 8 8 4 2 6 3 3 3 2 7 15 11 8 5 1 2 3 10 11 6 3 13 4 5
24 24 24 25 26 28 28 27 31 30 27 24 22 21 3 2 9 14 11 9 7 5 5 5 3 5 2 3 2 2 3 2 3 3 15 12 6 4 3 3 3 3 13 3 6 4 4
26 25 26 27 28 27 27 25 27 35 28 25 11 26 7 4 4 9 4 4 5 6 4 5 2 3 5 2 2 2 3 4 4 2 4 7 6 13 7 4 6 7 7 8 2 3 7
29 29 28 27 27 26 25 23 16 28 29 28 20 19 20 3 9 12 11 8 6 5 3 5 2 0 2 1 2 4 3 4 3 8 4 9 8 7 5 5 8 5 2 4 6 11 12
30 29 28 28 27 26 25 22 20 23 32 28 11 22 23 3 4 16 16 19 17 14 1 3 6 2 2 2 2 2 2 3 3 2 5 2 3 5 10 6 2 7 14 9 11 14 12

GFSGBSN_925_spd_072.txt.gz
Wind_Speed
4 5 6 5 6 6 9 11 12 12 12 14 17 19 17 19 20 24 28 30 31 28 27 25 22 19 11 2 11 14 10 16 17 11 9 5 5 4 5 5 6 11 14 16 15 14 17
7 7 7 7 7 7 8 10 13 13 14 16 16 18 18 19 21 25 30 33 32 31 29 25 19 14 3 6 8 2 6 16 9 8 7 7 7 6 6 6 9 5 12 18 16 17 17
6 8 8 7 8 9 9 11 13 13 15 16 15 17 19 22 25 29 33 32 33 33 31 25 16 10 9 18 9 16 20 15 17 12 4 8 3 2 4 5 5 5 12 14 16 8 9
6 6 7 9 10 12 13 12 13 13 15 16 17 18 24 28 31 31 34 33 33 32 27 18 7 7 9 15 17 20 10 16 14 14 16 17 9 3 4 6 5 4 4 8 7 10 11
7 9 9 10 11 12 10 12 14 14 16 16 17 21 24 28 30 33 33 31 29 20 7 7 7 6 10 10 5 10 7 7 11 12 14 14 1 3 4 3 4 4 7 7 5 6 7
7 8 9 9 11 11 11 12 13 14 18 18 18 20 24 29 31 33 31 34 14 10 11 9 2 5 8 3 3 14 7 6 4 2 2 3 2 1 4 3 6 5 4 4 4 4 4
7 8 8 10 11 12 12 14 15 15 15 14 17 20 23 29 32 28 31 13 6 4 3 6 6 6 11 8 14 7 13 5 2 3 5 3 2 7 9 8 6 5 8 9 11 12 5
8 9 9 10 11 12 11 12 13 14 15 15 17 20 23 29 30 24 14 5 11 9 11 14 21 22 28 16 9 18 18 4 5 6 3 1 8 9 6 7 2 4 9 13 13 15 7
9 9 10 10 12 12 11 11 12 13 15 16 17 19 23 29 26 7 15 15 19 18 4 14 9 8 9 19 12 16 8 6 5 6 6 7 4 7 6 8 9 5 7 9 16 19 11
8 9 9 9 10 11 10 11 13 15 16 15 17 18 19 28 6 22 4 28 24 12 4 8 6 7 7 9 6 13 11 6 5 8 5 6 3 5 5 8 11 14 6 8 16 9 6
9 6 8 9 10 11 12 13 14 17 15 15 15 16 16 18 18 8 14 29 22 3 5 3 4 13 9 6 4 3 7 4 4 5 4 4 4 2 7 13 10 8 8 13 13 3 3
10 10 9 9 11 12 13 13 14 16 14 13 14 14 15 15 16 14 22 24 7 2 7 3 6 8 5 5 3 3 2 2 3 5 2 5 0 4 4 6 13 8 4 10 6 3 4
10 10 8 8 11 13 13 13 14 13 13 15 15 13 13 13 6 19 21 9 2 4 7 2 5 7 10 7 7 6 6 7 6 4 5 2 7 3 2 2 6 7 0 2 5 4 5
8 8 8 9 11 11 12 10 12 13 14 14 14 13 15 21 21 17 13 2 8 6 7 15 13 6 9 7 9 9 8 5 6 2 2 3 5 10 7 7 6 10 6 2 4 3 1
10 11 7 8 12 12 11 12 13 13 12 12 14 13 11 21 9 5 1 4 4 4 7 15 17 2 2 5 6 5 8 6 7 8 6 3 4 2 8 7 11 4 7 5 2 0 1
9 8 9 10 12 11 10 10 9 9 9 10 10 7 12 12 15 5 3 6 6 6 10 11 7 8 8 10 9 6 10 1 4 4 4 1 3 6 5 4 7 6 1 3 3 2 4
9 10 11 11 12 11 10 10 10 10 10 10 5 3 7 6 7 1 6 7 7 9 11 5 7 9 8 8 8 6 4 3 3 2 6 1 4 4 6 6 9 4 3 3 2 3 1
9 12 13 12 10 10 10 10 11 11 9 5 1 2 3 13 2 3 8 4 5 11 9 10 7 14 4 9 3 5 3 3 3 1 3 1 3 3 7 6 11 10 7 5 3 5 5
13 12 13 12 12 12 12 12 13 11 7 1 1 2 9 6 3 6 5 11 11 13 15 6 6 6 9 4 5 3 4 4 5 3 5 3 0 3 4 5 4 4 9 12 8 1 4
14 13 12 12 12 13 12 12 10 10 8 7 1 2 3 2 1 1 5 8 8 10 16 13 14 16 14 4 4 6 3 1 2 0 6 4 1 2 3 1 1 6 5 5 11 3 3
15 14 14 13 13 13 14 13 12 11 5 10 3 3 3 2 1 1 1 6 12 10 9 10 6 15 11 4 6 5 5 4 7 5 3 3 2 1 5 11 11 12 13 12 15 16 6
15 14 14 13 14 14 13 13 13 11 7 7 2 2 3 2 4 4 4 4 11 14 6 10 9 12 6 5 7 5 3 2 1 3 2 3 2 3 4 4 6 13 13 13 12 17 17
16 16 15 16 17 16 15 16 15 13 10 5 5 2 3 3 4 3 3 6 10 14 9 17 13 5 9 4 4 4 3 3 3 4 2 1 1 3 4 7 11 6 7 11 7 15 18
20 20 18 18 18 16 16 17 17 16 17 11 5 5 3 3 5 5 11 16 17 13 10 11 7 8 4 2 3 3 4 6 5 4 5 4 2 2 3 6 4 4 17 12 14 12 8
20 18 18 18 19 18 18 18 18 18 20 21 16 4 2 3 4 7 8 13 14 12 9 7 6 4 0 4 2 1 3 3 5 9 9 8 5 1 2 2 10 15 6 7 3 4 3
20 20 20 19 19 21 21 21 22 23 25 23 23 21 3 1 5 11 12 11 5 4 6 4 2 4 4 3 3 1 2 2 2 4 7 4 3 4 2 2 4 3 6 5 6 3 6
19 20 20 20 21 23 23 22 22 22 26 31 11 28 6 3 3 3 4 4 3 1 4 3 8 5 2 2 2 2 3 3 2 2 1 3 1 9 5 4 7 7 5 3 2 1 3
20 21 22 22 24 24 23 22 21 20 21 32 13 19 17 2 5 5 6 7 4 2 2 4 4 3 2 2 2 3 3 4 1 2 3 5 5 3 4 4 8 6 6 8 5 8 8
23 23 24 25 24 23 22 22 20 18 16 29 6 21 23 3 4 5 12 16 17 14 3 1 0 1 3 2 1 2 2 2 2 2 2 2 5 2 6 6 2 8 5 12 18 12 8

GFSGBSN_925_spd_075.txt.gz
Wind_Speed
4 3 4 4 5 6 6 8 10 11 13 15 18 18 19 20 22 24 29 31 32 29 26 24 19 16 10 4 10 7 9 8 9 3 8 5 5 3 4 4 6 10 8 9 7 8 8
5 5 6 6 6 5 7 8 11 12 13 15 17 16 19 21 24 28 32 33 34 33 30 25 18 9 3 8 6 5 3 6 6 6 4 5 5 5 6 6 7 7 9 14 10 13 7
6 4 6 6 6 6 8 10 10 11 12 15 15 18 20 23 26 31 32 38 35 29 33 26 15 6 7 19 6 11 17 17 10 6 4 7 4 2 2 6 8 7 12 9 8 5 7
6 4 4 6 7 9 10 9 11 11 12 15 16 18 23 26 30 34 38 36 31 31 23 17 12 8 9 14 15 19 11 11 15 14 14 12 8 4 4 6 6 5 5 7 3 8 8
7 6 4 6 9 8 7 8 10 11 11 15 16 18 23 27 32 37 36 33 28 14 8 7 10 5 11 8 6 3 3 4 2 6 8 7 5 6 3 3 4 3 11 9 6 8 6
4 5 5 6 6 7 8 9 11 11 13 15 16 20 24 27 32 35 30 25 8 6 9 7 3 3 8 2 0 6 3 4 3 2 2 3 3 2 1 3 9 5 6 4 5 3 3
6 5 6 5 5 6 7 8 10 12 12 15 18 20 24 27 31 32 25 9 6 2 1 8 6 7 9 7 7 4 4 5 3 4 4 2 3 8 8 7 6 6 5 5 5 8 6
5 4 4 5 6 8 9 7 9 10 12 15 17 19 24 27 32 19 14 4 9 12 13 14 22 23 33 11 8 8 2 2 5 5 3 1 8 8 6 7 7 8 9 9 6 7 10
4 5 5 5 7 7 8 7 9 11 16 17 18 19 23 26 28 10 9 7 25 23 5 12 9 10 9 18 13 11 7 5 4 7 7 7 6 1 6 8 10 9 7 4 7 9 16
5 5 3 2 5 5 7 7 8 12 14 16 15 17 20 25 4 23 4 23 27 10 4 8 5 6 6 5 8 11 12 6 4 9 6 6 4 5 6 7 6 10 6 9 5 6 9
2 1 2 3 5 7 9 10 10 12 13 14 14 16 16 15 13 9 12 27 23 1 5 1 3 9 9 6 3 2 6 3 5 5 6 5 5 4 6 11 5 5 4 4 6 8 7
4 5 5 4 5 8 10 10 10 12 12 12 13 16 15 13 13 9 22 24 4 3 7 6 3 3 3 3 1 3 4 3 3 3 1 5 1 5 6 3 8 1 3 4 6 7 7
4 4 2 2 5 7 9 8 9 9 10 12 12 14 13 13 5 20 21 8 3 5 8 9 8 8 9 3 3 3 6 6 6 3 5 2 5 3 3 2 1 8 2 2 4 6 6
2 3 2 3 4 6 8 9 10 10 10 11 12 15 17 18 17 17 7 2 4 3 6 9 9 17 7 5 6 6 5 5 5 2 2 5 4 8 6 7 6 11 5 3 4 3 3
5 4 4 1 5 7 8 8 9 8 8 9 12 16 16 17 7 3 2 2 4 2 6 12 15 7 3 8 5 5 6 5 7 10 6 5 4 2 6 4 5 3 8 0 3 3 1
4 4 2 4 5 7 8 8 7 7 8 9 9 8 9 11 5 2 2 5 3 6 9 6 5 8 8 13 9 6 8 2 5 8 3 4 2 3 2 5 2 4 1 2 3 3 2
9 6 4 7 7 8 8 7 7 6 6 6 3 3 8 7 11 2 3 4 4 7 10 7 7 7 8 14 9 4 3 3 1 1 5 2 3 4 5 4 7 4 3 3 2 2 2
4 5 7 8 8 7 7 8 7 6 4 2 1 2 3 10 1 1 2 3 2 5 9 9 7 10 2 13 8 6 5 3 6 2 3 1 3 3 8 5 10 5 5 4 2 3 3
7 7 8 9 8 9 8 7 6 6 1 3 0 3 3 3 2 2 4 7 8 13 10 4 6 9 2 5 7 10 9 8 3 3 7 3 2 3 2 4 4 2 4 7 4 2 4
10 10 10 8 8 8 9 9 7 4 2 5 1 2 3 2 1 3 2 4 4 4 7 7 9 10 14 6 11 8 8 7 5 3 7 3 3 1 2 1 3 5 7 6 8 2 2
10 11 11 9 10 9 8 9 7 4 3 8 3 3 3 2 1 3 2 2 4 4 6 3 4 8 12 5 4 7 3 3 4 3 4 3 2 1 6 8 6 10 14 12 12 9 5
13 13 11 10 10 10 9 9 8 7 6 5 2 2 0 2 2 2 3 2 8 5 3 8 9 8 8 5 9 10 3 1 3 3 3 1 2 1 4 7 8 13 13 14 13 13 8
14 14 12 12 12 12 12 12 11 9 10 3 4 1 2 3 0 3 3 4 9 10 9 8 12 13 12 13 7 7 6 3 0 1 2 2 3 2 3 5 9 7 2 9 10 10 8
15 15 15 17 16 14 13 13 14 14 15 12 6 4 2 3 4 4 6 9 14 14 14 17 14 6 6 6 6 5 4 4 1 5 3 4 4 3 3 4 4 5 16 5 8 12 12
17 17 16 14 14 14 14 14 13 13 13 18 12 5 3 3 4 6 9 8 10 13 11 13 16 13 4 8 0 1 3 4 4 7 8 6 4 1 2 2 9 12 3 7 8 4 3
19 16 16 16 17 18 17 16 16 14 16 19 21 20 3 1 5 10 7 7 5 4 4 3 12 5 2 1 1 3 3 1 3 5 3 5 3 3 2 1 4 4 10 3 5 5 4
17 19 16 15 16 17 18 17 17 17 18 21 11 29 7 3 3 4 4 3 3 3 3 5 9 5 1 1 2 2 1 0 1 2 0 2 1 8 3 4 7 9 12 10 1 2 8
18 16 16 17 19 19 19 19 19 19 18 18 13 26 16 2 4 3 2 4 1 1 3 5 5 4 3 3 1 0 1 2 1 3 4 4 4 3 2 3 9 6 8 4 2 6 11
18 18 19 20 21 21 21 20 19 18 18 15 5 23 24 3 4 4 13 23 18 15 2 1 2 3 1 3 2 1 2 2 2 2 1 2 4 2 5 4 4 5 9 11 8 12 15